Retour au catalogue

FENGYUN 1C DEB

ActifSSO
NORAD 32187·DEBRIS·🇨🇳 China

Lancé May 10, 1999 depuis Taiyuan Satellite Launch Center

Loading…

Prochains Passages (prochaines 24 heures)

TLE

FraisSource: Space-Track

Époque: Sep 12, 2026, 10:29 UTC

1 32187U 99025CUH 26255.43714388  .00000262  00000-0  36136-3 0  9996
2 32187  99.4818 327.1841 0293276 179.9926 246.0373 13.50651084699530

Suivez FENGYUN 1C DEB en temps réel avec AllMySat

Download on the App Store